#timestamp,LO_Frequency,Hit 
1504447215.1,286046996.8,N
1504447235.9,286047001.1,N
1504447255.7,286047004.3,N
1504447275.5,286047005.3,N
1504447295.4,286047001.8,N
1504447315.2,286047004.4,N
1504447335.0,286047001.3,N
1504447335.9,286047001.3,N
1504447355.8,286046999.7,N
1504447375.6,286047000.1,N
1504447395.4,286047001.0,N
1504447415.2,286047004.1,N
1504447435.1,286047001.9,N
1504447455.5,286047005.6,N
1504447475.3,286047003.1,N
1504447495.1,286047001.7,N
1504447515.9,286047004.2,N
1504447535.7,286047005.6,N
1504447555.5,286047005.3,N
1504447575.4,286047008.6,N
1504447595.2,286047004.8,N
1504447615.0,286047004.9,N
1504447615.9,286047004.9,N
1504447635.8,286047003.8,N
1504447655.6,286047001.4,N
1504447675.4,286047003.9,N
1504447695.2,286047006.3,N
1504447715.1,286047004.5,N
1504447716.0,286047004.5,N
1504447735.8,286047003.0,N
1504447755.6,286047001.0,N
1504447775.5,286046998.9,N
1504447795.3,286047004.2,N
1504447815.1,286047003.1,N
1504447835.9,286047007.0,P
1504447855.7,286047001.7,N
1504447875.6,286047004.2,N
1504447895.4,286047004.2,N
1504447915.2,286047003.9,N
1504447935.0,286047003.6,N
1504447935.9,286047003.6,N
1504447955.8,286047004.2,P
1504447975.6,286047000.1,N
1504447995.5,286047000.0,N
1504448015.3,286047002.6,N
1504448035.1,286047001.9,N
1504448055.8,286047003.9,N
1504448075.7,286047002.0,N
1504448095.5,286047002.4,N
1504448115.3,286046998.6,N
1504448135.2,286047002.5,N
1504448155.0,286047003.5,N
1504448155.9,286047003.5,N
1504448175.7,286047003.5,N
1504448195.6,286047001.7,N
1504448215.4,286046998.5,N
1504448235.2,286046998.2,N
1504448255.1,286047002.5,N
1504448256.0,286047002.5,N
1504448275.8,286047001.5,N
1504448295.6,286047002.1,N
1504448315.5,286047000.4,N
1504448335.3,286046998.9,N
1504448355.1,286046999.6,N
1504448375.9,286046998.6,N
1504448395.7,286047001.2,N
1504448415.5,286046999.5,N
1504448435.4,286046998.6,N
1504448455.2,286047001.1,N
1504448475.0,286047001.1,N
1504448475.9,286047001.1,N
1504448495.8,286046996.5,N
1504448515.6,286046995.8,N
1504448535.4,286046995.9,N
1504448555.2,286047000.8,N
1504448575.1,286047001.8,N
1504448576.0,286047001.8,N
1504448595.8,286047000.2,N
1504448615.6,286046997.0,N
1504448635.5,286046998.7,N
1504448655.3,286047001.9,N
1504448675.1,286046999.6,N
1504448695.9,286046996.5,N
1504448715.7,286046997.8,N
1504448735.5,286046994.1,N
1504448755.4,286046993.7,N
1504448775.2,286046994.1,N
1504448795.0,286046994.2,N
1504448795.9,286046994.2,N
1504448815.8,286046995.4,N
1504448835.6,286046994.0,N
1504448855.4,286046992.8,N
1504448875.3,286046993.6,N
1504448895.1,286046995.4,N
1504448896.0,286046995.4,N
1504448915.8,286046998.0,N
1504448935.7,286046996.5,N
1504448955.5,286046999.0,N
1504448975.3,286046996.7,N
1504448995.2,286046995.2,N
1504449015.9,286046996.6,N
1504449035.7,286046998.4,N
1504449055.6,286046998.9,N
1504449075.4,286046999.5,N
1504449095.2,286046995.9,N
1504449115.0,286046998.9,N
1504449115.9,286046998.9,N
1504449135.8,286046999.9,N
1504449155.6,286046998.6,N
1504449175.4,286046995.3,N
1504449195.3,286046998.5,N
1504449215.1,286046998.1,N
1504449235.8,286046999.5,N
1504449255.7,286046996.8,N
1504449275.5,286046993.4,P
1504449295.3,286046998.4,N
1504449315.2,286047002.7,N
1504449335.0,286047001.0,N
1504449335.9,286047001.0,N
1504449355.7,286047005.5,N
1504449375.6,286047004.7,N
1504449395.4,286047006.9,N
1504449415.2,286047007.2,N
1504449435.1,286047010.8,N
1504449436.0,286047010.8,N
1504449455.8,286047007.8,N
1504449475.6,286047010.5,N
1504449495.5,286047008.3,N
1504449515.6,286047008.2,N
1504449535.4,286047010.6,N
1504449555.2,286047012.7,N
1504449575.1,286047013.8,N
1504449576.0,286047013.8,N
1504449595.8,286047008.2,N
1504449615.6,286047003.4,N
1504449635.5,286047004.9,N
1504449655.3,286047010.7,N
1504449675.1,286047006.5,N
1504449695.9,286047005.0,N
1504449715.7,286047007.0,N
1504449735.5,286047003.2,N
1504449755.4,286047004.2,N
1504449775.2,286047002.1,N
1504449795.0,286047003.0,N
1504449795.9,286047003.0,N
1504449815.7,286047006.6,N
1504449835.6,286047006.5,N
1504449855.4,286047003.4,N
1504449875.2,286047005.6,N
1504449895.1,286047004.2,N
1504449896.0,286047004.2,N
1504449915.8,286047004.2,N
1504449935.6,286047005.3,N
1504449955.5,286047003.9,N
1504449975.3,286047004.0,N
1504449995.1,286047004.4,N
1504450015.9,286047006.0,N
1504450035.7,286047005.1,N
1504450055.5,286047005.6,N
1504450075.4,286047004.0,N
1504450095.2,286047002.1,N
1504450115.0,286047005.7,N
1504450115.9,286047005.7,N
1504450135.8,286047005.7,P
1504450155.6,286046999.1,N
1504450175.4,286046998.4,N
1504450195.3,286046997.0,N
1504450215.1,286046994.7,N
1504450216.0,286046994.7,N
1504450235.8,286046993.3,N
1504450255.7,286046993.6,N
1504450275.5,286046997.5,N
1504450295.3,286046996.8,N
1504450315.2,286046997.9,N
1504450335.9,286046999.0,N
1504450355.7,286046995.5,N
1504450375.6,286046994.2,N
1504450395.4,286046996.8,N
1504450415.2,286046999.0,N
1504450435.0,286046998.2,N
1504450435.9,286046998.2,N
1504450455.8,286047002.4,N
1504450475.6,286046994.9,N
1504450495.4,286046996.9,N
1504450515.3,286046998.7,N
1504450535.1,286047000.7,N
1504450555.8,286046999.5,N
1504450575.7,286046996.8,N
1504450595.5,286046997.7,N
1504450615.3,286046997.4,N
1504450635.2,286047000.9,N
1504450655.9,286047000.9,N
1504450675.7,286047003.2,N
1504450695.6,286047005.4,N
1504450715.4,286047000.0,N
1504450735.2,286047000.7,N
1504450755.1,286047001.3,N
1504450756.0,286047001.3,N
1504450775.8,286047007.5,N
1504450795.6,286047004.1,N
